TimeEST,TemperatureF,Dew PointF,Humidity,Sea Level PressureIn,VisibilityMPH,Wind Direction,Wind SpeedMPH,Gust SpeedMPH,PrecipitationIn,Events,Conditions,WindDirDegrees,DateUTC
12:54 AM,30.9,16.0,54,30.60,10.0,NE,3.5,-,N/A,,Scattered Clouds,50,2013-11-21 05:54:00
1:54 AM,32.0,17.1,54,30.60,10.0,NE,4.6,-,N/A,,Mostly Cloudy,50,2013-11-21 06:54:00
2:54 AM,30.0,18.0,61,30.60,10.0,Calm,Calm,-,N/A,,Scattered Clouds,0,2013-11-21 07:54:00
3:54 AM,30.0,18.0,61,30.58,10.0,NNE,3.5,-,N/A,,Scattered Clouds,20,2013-11-21 08:54:00
4:54 AM,28.0,19.0,69,30.58,10.0,Calm,Calm,-,N/A,,Partly Cloudy,0,2013-11-21 09:54:00
5:54 AM,28.9,19.0,67,30.58,10.0,North,3.5,-,N/A,,Clear,10,2013-11-21 10:54:00
6:54 AM,28.9,19.9,69,30.59,10.0,NNE,3.5,-,N/A,,Clear,20,2013-11-21 11:54:00
7:54 AM,33.1,23.0,66,30.58,10.0,Calm,Calm,-,N/A,,Clear,0,2013-11-21 12:54:00
8:54 AM,39.9,27.0,60,30.59,10.0,NNE,3.5,-,N/A,,Clear,30,2013-11-21 13:54:00
9:54 AM,44.1,28.9,55,30.59,10.0,NNE,4.6,-,N/A,,Scattered Clouds,30,2013-11-21 14:54:00
10:54 AM,48.9,33.1,54,30.56,10.0,Variable,4.6,-,N/A,,Partly Cloudy,0,2013-11-21 15:54:00
11:54 AM,53.1,37.0,55,30.52,10.0,Variable,3.5,-,N/A,,Scattered Clouds,0,2013-11-21 16:54:00
12:54 PM,53.1,36.0,52,30.50,10.0,ESE,5.8,-,N/A,,Overcast,110,2013-11-21 17:54:00
1:54 PM,53.1,37.9,57,30.47,10.0,SE,4.6,-,N/A,,Overcast,140,2013-11-21 18:54:00
2:54 PM,53.1,37.9,57,30.47,10.0,SSE,5.8,-,N/A,,Overcast,160,2013-11-21 19:54:00
3:54 PM,52.0,37.9,59,30.46,10.0,SSE,3.5,-,N/A,,Overcast,160,2013-11-21 20:54:00
4:54 PM,50.0,37.9,63,30.46,10.0,SSE,4.6,-,N/A,,Overcast,150,2013-11-21 21:54:00
5:54 PM,48.9,37.9,66,30.46,10.0,Calm,Calm,-,N/A,,Overcast,0,2013-11-21 22:54:00
6:54 PM,48.0,39.0,71,30.46,10.0,Calm,Calm,-,N/A,,Overcast,0,2013-11-21 23:54:00
7:54 PM,48.0,39.0,71,30.45,10.0,Calm,Calm,-,N/A,,Overcast,0,2013-11-22 00:54:00
8:54 PM,48.0,39.0,71,30.43,10.0,Calm,Calm,-,N/A,,Overcast,0,2013-11-22 01:54:00
9:54 PM,46.9,39.9,77,30.43,10.0,Calm,Calm,-,N/A,,Overcast,0,2013-11-22 02:54:00
10:54 PM,46.9,39.9,77,30.42,10.0,Calm,Calm,-,N/A,,Overcast,0,2013-11-22 03:54:00
11:54 PM,46.9,39.9,77,30.40,10.0,Calm,Calm,-,N/A,,Overcast,0,2013-11-22 04:54:00